SCP
0 0 0 0 0 0 0 0 0 -0 -0 0 0 0 -0 -0 -0 0 -0 -0 0 -0
0 0 0 0 0 0 0 0 -0 -0 0 -0 -0 -0 -0 -0 -0 -0 -0 -0 -0 0
0 0 0 0 0 0 0 -0 -0 -0 0 -0 -0 -0 -0 0 0 -0 -0 0 0 -0
0 0 0 0 0 0 -0 -0 -0 -0 -0 -0 0 0 0 -0 -0 0 0 0 0 0
0 0 0 0 0 0 0 -0 0 -0 -0 -0 -0 0 -0 -0 -0 -0 -0 -0 0 0
0 0 0 0 0 0 0 -0 -0 0 0 0 -0 -0 0 -0 -0 -0 -0 -0 -0 -0
0 0 0 0 0 0 0 -0 -0 -0 -0 0 0 -0 0 0 -0 -0 -0 -0 -0 -0
0 0 0 0 0 0 0 -0 -0 -0 -0 -0 -0 -0 -0 0 0 0 -0 -0 -0 -0
1 1 0 0 0 0 0 0 0 0 -0 -0 0 -0 -0 -0 -0 -0 -0 -0 -0 -0
1 1 1 0 0 0 0 0 0 0 0 0 0 0 -0 -0 -0 -0 -0 -0 -0 -0
0 0 1 1 0 0 0 0 0 0 0 0 0 0 0 0 -0 -0 -0 -0 -0 -0
0 0 1 0 0 1 0 0 0 0 0 0 0 0 0 0 0 -0 -0 -0 -0 0
1 1 1 1 1 1 1 1 1 0 0 0 0 0 0 0 0 0 0 0 0 0
1 1 1 1 1 1 1 1 1 1 0 0 0 0 0 0 0 0 1 1 1 1
Wind_Speed_500mb
79 79 69 60 53 50 56 55 45 39 37 30 24 22 24 26 28 25 26 26 26 25
77 81 77 66 57 52 50 50 48 38 37 36 32 30 28 30 30 30 33 33 32 31
77 76 80 73 64 57 53 51 50 46 42 40 37 36 37 35 33 36 33 35 36 34
81 77 82 79 67 61 57 52 53 51 47 45 42 40 41 38 38 37 33 33 38 41
88 79 79 81 70 62 62 58 55 53 50 50 50 47 45 44 43 43 44 42 42 41
99 90 81 78 73 67 63 63 60 59 58 56 55 54 50 46 44 45 47 51 53 47
96 90 82 77 74 73 68 64 65 65 64 62 63 62 60 56 54 54 54 51 54 51
91 91 84 80 75 74 73 67 65 67 69 69 69 68 67 65 64 62 59 58 55 53
83 85 83 76 77 77 76 70 67 69 70 73 76 73 72 72 71 68 66 65 63 61
78 76 79 76 75 76 77 72 70 68 69 73 73 74 75 75 76 77 78 78 75 73
78 77 77 77 78 77 76 74 71 69 68 68 70 69 69 71 75 80 82 82 82 83
70 69 72 76 74 70 70 70 68 66 66 68 67 63 61 62 69 77 81 81 81 80
68 68 69 67 67 67 68 66 63 64 63 61 60 54 51 51 58 65 69 69 72 72
63 62 59 59 60 61 59 58 59 56 51 50 48 45 43 45 53 58 59 62 64 62
Wind_Direction_500mb
234 234 236 239 244 245 241 240 240 234 230 225 228 235 240 241 237 240 241 244 245 251
234 236 236 239 241 244 244 236 234 228 223 225 232 238 243 244 241 245 247 249 254 259
232 237 239 240 241 243 241 235 229 229 226 229 234 239 243 245 244 246 250 251 253 261
231 235 239 241 241 242 241 237 229 229 227 229 234 239 244 243 244 248 254 257 257 258
231 234 237 239 240 241 240 237 233 230 229 229 227 229 237 241 243 249 256 261 264 265
233 234 235 238 240 241 240 237 235 233 232 228 226 227 231 239 245 247 253 260 262 264
233 235 237 239 241 243 242 239 236 235 234 233 230 231 234 235 240 249 256 258 256 255
235 236 237 240 242 244 244 241 239 238 237 237 236 235 235 237 242 247 252 253 253 254
233 236 237 239 242 242 243 241 240 239 239 239 240 241 241 242 245 249 252 254 254 256
231 232 234 236 239 239 240 240 239 240 240 241 243 244 246 247 249 252 254 256 258 260
228 230 232 234 237 239 240 240 241 242 244 245 245 247 247 249 251 253 255 257 259 261
225 232 236 237 238 240 241 243 243 246 248 249 250 250 250 249 250 253 255 257 259 260
236 236 238 239 240 242 244 247 248 250 252 254 255 254 252 250 252 253 256 259 260 262
239 239 240 242 243 243 245 247 249 251 252 254 255 255 251 249 252 257 261 262 263 265
Wind_Speed_850mb
79 79 69 60 53 50 56 55 45 39 37 30 24 22 24 26 28 25 26 26 26 25
77 81 77 66 57 52 50 50 48 38 37 36 32 30 28 30 30 30 33 33 32 31
77 76 80 73 64 57 53 51 50 46 42 40 37 36 37 35 33 36 33 35 36 34
81 77 82 79 67 61 57 52 53 51 47 45 42 40 41 38 38 37 33 33 38 41
88 79 79 81 70 62 62 58 55 53 50 50 50 47 45 44 43 43 44 42 42 41
99 90 81 78 73 67 63 63 60 59 58 56 55 54 50 46 44 45 47 51 53 47
96 90 82 77 74 73 68 64 65 65 64 62 63 62 60 56 54 54 54 51 54 51
91 91 84 80 75 74 73 67 65 67 69 69 69 68 67 65 64 62 59 58 55 53
83 85 83 76 77 77 76 70 67 69 70 73 76 73 72 72 71 68 66 65 63 61
78 76 79 76 75 76 77 72 70 68 69 73 73 74 75 75 76 77 78 78 75 73
78 77 77 77 78 77 76 74 71 69 68 68 70 69 69 71 75 80 82 82 82 83
70 69 72 76 74 70 70 70 68 66 66 68 67 63 61 62 69 77 81 81 81 80
68 68 69 67 67 67 68 66 63 64 63 61 60 54 51 51 58 65 69 69 72 72
63 62 59 59 60 61 59 58 59 56 51 50 48 45 43 45 53 58 59 62 64 62
Wind_Direction_850mb
234 234 236 239 244 245 241 240 240 234 230 225 228 235 240 241 237 240 241 244 245 251
234 236 236 239 241 244 244 236 234 228 223 225 232 238 243 244 241 245 247 249 254 259
232 237 239 240 241 243 241 235 229 229 226 229 234 239 243 245 244 246 250 251 253 261
231 235 239 241 241 242 241 237 229 229 227 229 234 239 244 243 244 248 254 257 257 258
231 234 237 239 240 241 240 237 233 230 229 229 227 229 237 241 243 249 256 261 264 265
233 234 235 238 240 241 240 237 235 233 232 228 226 227 231 239 245 247 253 260 262 264
233 235 237 239 241 243 242 239 236 235 234 233 230 231 234 235 240 249 256 258 256 255
235 236 237 240 242 244 244 241 239 238 237 237 236 235 235 237 242 247 252 253 253 254
233 236 237 239 242 242 243 241 240 239 239 239 240 241 241 242 245 249 252 254 254 256
231 232 234 236 239 239 240 240 239 240 240 241 243 244 246 247 249 252 254 256 258 260
228 230 232 234 237 239 240 240 241 242 244 245 245 247 247 249 251 253 255 257 259 261
225 232 236 237 238 240 241 243 243 246 248 249 250 250 250 249 250 253 255 257 259 260
236 236 238 239 240 242 244 247 248 250 252 254 255 254 252 250 252 253 256 259 260 262
239 239 240 242 243 243 245 247 249 251 252 254 255 255 251 249 252 257 261 262 263 265